<?xml version="1.0" encoding="UTF-8" standalone="no" ?>
<gpx xmlns="http://www.topografix.com/GPX/1/1" xmlns:xsi="http://www.w3.org/2001/XMLSchema-instance" xsi:schemaLocation="http://www.topografix.com/GPX/1/1 http://www.topografix.com/GPX/1/1/gpx.xsd" version="1.1" creator="VisuGPX - https://www.visugpx.com">
  <metadata>
    <name>test rivolet</name>
    <desc><![CDATA[test de circuit a rivolet]]></desc>
  </metadata>
  <trk>
    <name><![CDATA[rivolet]]></name>
    <trkseg>
      <trkpt lat="46.00594" lon="4.60057">
        <ele>341</ele>
        <time>1970-01-01T00:00:00Z</time>
      </trkpt>
      <trkpt lat="46.00607" lon="4.59861">
        <ele>348</ele>
        <time>1970-01-01T00:00:00Z</time>
      </trkpt>
      <trkpt lat="46.00642" lon="4.59968">
        <ele>349</ele>
        <time>1970-01-01T00:00:00Z</time>
      </trkpt>
      <trkpt lat="46.00758" lon="4.59997">
        <ele>367</ele>
        <time>1970-01-01T00:00:00Z</time>
      </trkpt>
      <trkpt lat="46.00686" lon="4.59932">
        <ele>363</ele>
        <time>1970-01-01T00:00:00Z</time>
      </trkpt>
      <trkpt lat="46.0073" lon="4.59909">
        <ele>373</ele>
        <time>1970-01-01T00:00:00Z</time>
      </trkpt>
      <trkpt lat="46.0073" lon="4.59909">
        <ele>373</ele>
        <time>1970-01-01T00:00:00Z</time>
      </trkpt>
      <trkpt lat="46.00783" lon="4.59893">
        <ele>385</ele>
        <time>1970-01-01T00:00:00Z</time>
      </trkpt>
      <trkpt lat="46.00871" lon="4.59853">
        <ele>404</ele>
        <time>1970-01-01T00:00:00Z</time>
      </trkpt>
      <trkpt lat="46.00931" lon="4.59827">
        <ele>416</ele>
        <time>1970-01-01T00:00:00Z</time>
      </trkpt>
      <trkpt lat="46.00931" lon="4.59827">
        <ele>416</ele>
        <time>1970-01-01T00:00:00Z</time>
      </trkpt>
      <trkpt lat="46.00927" lon="4.59875">
        <ele>422</ele>
        <time>1970-01-01T00:00:00Z</time>
      </trkpt>
      <trkpt lat="46.00991" lon="4.59978">
        <ele>428</ele>
        <time>1970-01-01T00:00:00Z</time>
      </trkpt>
      <trkpt lat="46.01098" lon="4.6013">
        <ele>456</ele>
        <time>1970-01-01T00:00:00Z</time>
      </trkpt>
      <trkpt lat="46.0117" lon="4.60214">
        <ele>478</ele>
        <time>1970-01-01T00:00:00Z</time>
      </trkpt>
      <trkpt lat="46.01133" lon="4.60079">
        <ele>478</ele>
        <time>1970-01-01T00:00:00Z</time>
      </trkpt>
      <trkpt lat="46.01088" lon="4.59986">
        <ele>476</ele>
        <time>1970-01-01T00:00:00Z</time>
      </trkpt>
      <trkpt lat="46.01098" lon="4.59829">
        <ele>471</ele>
        <time>1970-01-01T00:00:00Z</time>
      </trkpt>
      <trkpt lat="46.0113" lon="4.59711">
        <ele>461</ele>
        <time>1970-01-01T00:00:00Z</time>
      </trkpt>
      <trkpt lat="46.01197" lon="4.59675">
        <ele>470</ele>
        <time>1970-01-01T00:00:00Z</time>
      </trkpt>
      <trkpt lat="46.01313" lon="4.59709">
        <ele>475</ele>
        <time>1970-01-01T00:00:00Z</time>
      </trkpt>
      <trkpt lat="46.014" lon="4.59684">
        <ele>470</ele>
        <time>1970-01-01T00:00:00Z</time>
      </trkpt>
      <trkpt lat="46.01473" lon="4.59692">
        <ele>481</ele>
        <time>1970-01-01T00:00:00Z</time>
      </trkpt>
      <trkpt lat="46.01416" lon="4.5957">
        <ele>466</ele>
        <time>1970-01-01T00:00:00Z</time>
      </trkpt>
      <trkpt lat="46.01405" lon="4.59469">
        <ele>468</ele>
        <time>1970-01-01T00:00:00Z</time>
      </trkpt>
      <trkpt lat="46.01434" lon="4.59341">
        <ele>483</ele>
        <time>1970-01-01T00:00:00Z</time>
      </trkpt>
      <trkpt lat="46.01385" lon="4.59296">
        <ele>484</ele>
        <time>1970-01-01T00:00:00Z</time>
      </trkpt>
      <trkpt lat="46.01319" lon="4.59279">
        <ele>485</ele>
        <time>1970-01-01T00:00:00Z</time>
      </trkpt>
      <trkpt lat="46.01252" lon="4.59267">
        <ele>486</ele>
        <time>1970-01-01T00:00:00Z</time>
      </trkpt>
      <trkpt lat="46.0123" lon="4.59208">
        <ele>491</ele>
        <time>1970-01-01T00:00:00Z</time>
      </trkpt>
      <trkpt lat="46.01212" lon="4.59098">
        <ele>505</ele>
        <time>1970-01-01T00:00:00Z</time>
      </trkpt>
      <trkpt lat="46.01261" lon="4.58971">
        <ele>511</ele>
        <time>1970-01-01T00:00:00Z</time>
      </trkpt>
      <trkpt lat="46.01537" lon="4.58829">
        <ele>492</ele>
        <time>1970-01-01T00:00:00Z</time>
      </trkpt>
      <trkpt lat="46.01696" lon="4.58745">
        <ele>490</ele>
        <time>1970-01-01T00:00:00Z</time>
      </trkpt>
      <trkpt lat="46.01815" lon="4.58764">
        <ele>514</ele>
        <time>1970-01-01T00:00:00Z</time>
      </trkpt>
      <trkpt lat="46.01818" lon="4.5864">
        <ele>491</ele>
        <time>1970-01-01T00:00:00Z</time>
      </trkpt>
      <trkpt lat="46.01967" lon="4.58474">
        <ele>494</ele>
        <time>1970-01-01T00:00:00Z</time>
      </trkpt>
      <trkpt lat="46.02001" lon="4.58466">
        <ele>506</ele>
        <time>1970-01-01T00:00:00Z</time>
      </trkpt>
      <trkpt lat="46.021" lon="4.58326">
        <ele>510</ele>
        <time>1970-01-01T00:00:00Z</time>
      </trkpt>
      <trkpt lat="46.0218" lon="4.58191">
        <ele>517</ele>
        <time>1970-01-01T00:00:00Z</time>
      </trkpt>
      <trkpt lat="46.02273" lon="4.58171">
        <ele>533</ele>
        <time>1970-01-01T00:00:00Z</time>
      </trkpt>
      <trkpt lat="46.02359" lon="4.58064">
        <ele>534</ele>
        <time>1970-01-01T00:00:00Z</time>
      </trkpt>
      <trkpt lat="46.02447" lon="4.57953">
        <ele>543</ele>
        <time>1970-01-01T00:00:00Z</time>
      </trkpt>
      <trkpt lat="46.02494" lon="4.57941">
        <ele>547</ele>
        <time>1970-01-01T00:00:00Z</time>
      </trkpt>
      <trkpt lat="46.02623" lon="4.58003">
        <ele>579</ele>
        <time>1970-01-01T00:00:00Z</time>
      </trkpt>
      <trkpt lat="46.02591" lon="4.57945">
        <ele>573</ele>
        <time>1970-01-01T00:00:00Z</time>
      </trkpt>
      <trkpt lat="46.0262" lon="4.57812">
        <ele>587</ele>
        <time>1970-01-01T00:00:00Z</time>
      </trkpt>
      <trkpt lat="46.02605" lon="4.57803">
        <ele>586</ele>
        <time>1970-01-01T00:00:00Z</time>
      </trkpt>
      <trkpt lat="46.02572" lon="4.57749">
        <ele>585</ele>
        <time>1970-01-01T00:00:00Z</time>
      </trkpt>
      <trkpt lat="46.0259" lon="4.57697">
        <ele>590</ele>
        <time>1970-01-01T00:00:00Z</time>
      </trkpt>
      <trkpt lat="46.02802" lon="4.57681">
        <ele>598</ele>
        <time>1970-01-01T00:00:00Z</time>
      </trkpt>
      <trkpt lat="46.02888" lon="4.57754">
        <ele>613</ele>
        <time>1970-01-01T00:00:00Z</time>
      </trkpt>
      <trkpt lat="46.02888" lon="4.57754">
        <ele>613</ele>
        <time>1970-01-01T00:00:00Z</time>
      </trkpt>
      <trkpt lat="46.02912" lon="4.57819">
        <ele>624</ele>
        <time>1970-01-01T00:00:00Z</time>
      </trkpt>
      <trkpt lat="46.02976" lon="4.57854">
        <ele>622</ele>
        <time>1970-01-01T00:00:00Z</time>
      </trkpt>
      <trkpt lat="46.03069" lon="4.58105">
        <ele>652</ele>
        <time>1970-01-01T00:00:00Z</time>
      </trkpt>
      <trkpt lat="46.03144" lon="4.58177">
        <ele>645</ele>
        <time>1970-01-01T00:00:00Z</time>
      </trkpt>
      <trkpt lat="46.03254" lon="4.58602">
        <ele>651</ele>
        <time>1970-01-01T00:00:00Z</time>
      </trkpt>
      <trkpt lat="46.03248" lon="4.58775">
        <ele>649</ele>
        <time>1970-01-01T00:00:00Z</time>
      </trkpt>
      <trkpt lat="46.03365" lon="4.5895">
        <ele>661</ele>
        <time>1970-01-01T00:00:00Z</time>
      </trkpt>
      <trkpt lat="46.0341" lon="4.5896">
        <ele>662</ele>
        <time>1970-01-01T00:00:00Z</time>
      </trkpt>
      <trkpt lat="46.03543" lon="4.58937">
        <ele>659</ele>
        <time>1970-01-01T00:00:00Z</time>
      </trkpt>
      <trkpt lat="46.03555" lon="4.59342">
        <ele>547</ele>
        <time>1970-01-01T00:00:00Z</time>
      </trkpt>
      <trkpt lat="46.03609" lon="4.5932">
        <ele>560</ele>
        <time>1970-01-01T00:00:00Z</time>
      </trkpt>
      <trkpt lat="46.03647" lon="4.59378">
        <ele>549</ele>
        <time>1970-01-01T00:00:00Z</time>
      </trkpt>
      <trkpt lat="46.0366" lon="4.59427">
        <ele>543</ele>
        <time>1970-01-01T00:00:00Z</time>
      </trkpt>
      <trkpt lat="46.03608" lon="4.59385">
        <ele>544</ele>
        <time>1970-01-01T00:00:00Z</time>
      </trkpt>
      <trkpt lat="46.03639" lon="4.59467">
        <ele>535</ele>
        <time>1970-01-01T00:00:00Z</time>
      </trkpt>
      <trkpt lat="46.03675" lon="4.59509">
        <ele>537</ele>
        <time>1970-01-01T00:00:00Z</time>
      </trkpt>
      <trkpt lat="46.03744" lon="4.59544">
        <ele>539</ele>
        <time>1970-01-01T00:00:00Z</time>
      </trkpt>
      <trkpt lat="46.03809" lon="4.59563">
        <ele>554</ele>
        <time>1970-01-01T00:00:00Z</time>
      </trkpt>
      <trkpt lat="46.03836" lon="4.59592">
        <ele>552</ele>
        <time>1970-01-01T00:00:00Z</time>
      </trkpt>
      <trkpt lat="46.03848" lon="4.59594">
        <ele>552</ele>
        <time>1970-01-01T00:00:00Z</time>
      </trkpt>
      <trkpt lat="46.03917" lon="4.59652">
        <ele>562</ele>
        <time>1970-01-01T00:00:00Z</time>
      </trkpt>
      <trkpt lat="46.03957" lon="4.59727">
        <ele>557</ele>
        <time>1970-01-01T00:00:00Z</time>
      </trkpt>
      <trkpt lat="46.03963" lon="4.59779">
        <ele>550</ele>
        <time>1970-01-01T00:00:00Z</time>
      </trkpt>
      <trkpt lat="46.03956" lon="4.59778">
        <ele>549</ele>
        <time>1970-01-01T00:00:00Z</time>
      </trkpt>
      <trkpt lat="46.03913" lon="4.59704">
        <ele>539</ele>
        <time>1970-01-01T00:00:00Z</time>
      </trkpt>
      <trkpt lat="46.03909" lon="4.5972">
        <ele>538</ele>
        <time>1970-01-01T00:00:00Z</time>
      </trkpt>
      <trkpt lat="46.03927" lon="4.59768">
        <ele>545</ele>
        <time>1970-01-01T00:00:00Z</time>
      </trkpt>
      <trkpt lat="46.03925" lon="4.59839">
        <ele>535</ele>
        <time>1970-01-01T00:00:00Z</time>
      </trkpt>
      <trkpt lat="46.03914" lon="4.59836">
        <ele>529</ele>
        <time>1970-01-01T00:00:00Z</time>
      </trkpt>
      <trkpt lat="46.03906" lon="4.5978">
        <ele>527</ele>
        <time>1970-01-01T00:00:00Z</time>
      </trkpt>
      <trkpt lat="46.03868" lon="4.59753">
        <ele>521</ele>
        <time>1970-01-01T00:00:00Z</time>
      </trkpt>
      <trkpt lat="46.03873" lon="4.59787">
        <ele>521</ele>
        <time>1970-01-01T00:00:00Z</time>
      </trkpt>
      <trkpt lat="46.03874" lon="4.59826">
        <ele>519</ele>
        <time>1970-01-01T00:00:00Z</time>
      </trkpt>
      <trkpt lat="46.03863" lon="4.59861">
        <ele>512</ele>
        <time>1970-01-01T00:00:00Z</time>
      </trkpt>
      <trkpt lat="46.0386" lon="4.59813">
        <ele>516</ele>
        <time>1970-01-01T00:00:00Z</time>
      </trkpt>
      <trkpt lat="46.03828" lon="4.59777">
        <ele>501</ele>
        <time>1970-01-01T00:00:00Z</time>
      </trkpt>
      <trkpt lat="46.03837" lon="4.59818">
        <ele>510</ele>
        <time>1970-01-01T00:00:00Z</time>
      </trkpt>
      <trkpt lat="46.03819" lon="4.59881">
        <ele>491</ele>
        <time>1970-01-01T00:00:00Z</time>
      </trkpt>
      <trkpt lat="46.03806" lon="4.59824">
        <ele>496</ele>
        <time>1970-01-01T00:00:00Z</time>
      </trkpt>
      <trkpt lat="46.0378" lon="4.59801">
        <ele>493</ele>
        <time>1970-01-01T00:00:00Z</time>
      </trkpt>
      <trkpt lat="46.03792" lon="4.59834">
        <ele>489</ele>
        <time>1970-01-01T00:00:00Z</time>
      </trkpt>
      <trkpt lat="46.03776" lon="4.59899">
        <ele>484</ele>
        <time>1970-01-01T00:00:00Z</time>
      </trkpt>
      <trkpt lat="46.03783" lon="4.59946">
        <ele>482</ele>
        <time>1970-01-01T00:00:00Z</time>
      </trkpt>
      <trkpt lat="46.03742" lon="4.59855">
        <ele>474</ele>
        <time>1970-01-01T00:00:00Z</time>
      </trkpt>
      <trkpt lat="46.03742" lon="4.59855">
        <ele>474</ele>
        <time>1970-01-01T00:00:00Z</time>
      </trkpt>
      <trkpt lat="46.03726" lon="4.59896">
        <ele>470</ele>
        <time>1970-01-01T00:00:00Z</time>
      </trkpt>
      <trkpt lat="46.03676" lon="4.59951">
        <ele>461</ele>
        <time>1970-01-01T00:00:00Z</time>
      </trkpt>
      <trkpt lat="46.03694" lon="4.60122">
        <ele>447</ele>
        <time>1970-01-01T00:00:00Z</time>
      </trkpt>
      <trkpt lat="46.03668" lon="4.60118">
        <ele>446</ele>
        <time>1970-01-01T00:00:00Z</time>
      </trkpt>
      <trkpt lat="46.03603" lon="4.6033">
        <ele>441</ele>
        <time>1970-01-01T00:00:00Z</time>
      </trkpt>
      <trkpt lat="46.0354" lon="4.60385">
        <ele>443</ele>
        <time>1970-01-01T00:00:00Z</time>
      </trkpt>
      <trkpt lat="46.03528" lon="4.60276">
        <ele>457</ele>
        <time>1970-01-01T00:00:00Z</time>
      </trkpt>
      <trkpt lat="46.03544" lon="4.6017">
        <ele>465</ele>
        <time>1970-01-01T00:00:00Z</time>
      </trkpt>
      <trkpt lat="46.0353" lon="4.60064">
        <ele>481</ele>
        <time>1970-01-01T00:00:00Z</time>
      </trkpt>
      <trkpt lat="46.0347" lon="4.60187">
        <ele>486</ele>
        <time>1970-01-01T00:00:00Z</time>
      </trkpt>
      <trkpt lat="46.03423" lon="4.60156">
        <ele>504</ele>
        <time>1970-01-01T00:00:00Z</time>
      </trkpt>
      <trkpt lat="46.03401" lon="4.60071">
        <ele>528</ele>
        <time>1970-01-01T00:00:00Z</time>
      </trkpt>
      <trkpt lat="46.03417" lon="4.59925">
        <ele>535</ele>
        <time>1970-01-01T00:00:00Z</time>
      </trkpt>
      <trkpt lat="46.03377" lon="4.59929">
        <ele>551</ele>
        <time>1970-01-01T00:00:00Z</time>
      </trkpt>
      <trkpt lat="46.03315" lon="4.59997">
        <ele>566</ele>
        <time>1970-01-01T00:00:00Z</time>
      </trkpt>
      <trkpt lat="46.03245" lon="4.60033">
        <ele>573</ele>
        <time>1970-01-01T00:00:00Z</time>
      </trkpt>
      <trkpt lat="46.03245" lon="4.60033">
        <ele>573</ele>
        <time>1970-01-01T00:00:00Z</time>
      </trkpt>
      <trkpt lat="46.03178" lon="4.60017">
        <ele>581</ele>
        <time>1970-01-01T00:00:00Z</time>
      </trkpt>
      <trkpt lat="46.03139" lon="4.6008">
        <ele>577</ele>
        <time>1970-01-01T00:00:00Z</time>
      </trkpt>
      <trkpt lat="46.03096" lon="4.6011">
        <ele>571</ele>
        <time>1970-01-01T00:00:00Z</time>
      </trkpt>
      <trkpt lat="46.03045" lon="4.60105">
        <ele>578</ele>
        <time>1970-01-01T00:00:00Z</time>
      </trkpt>
      <trkpt lat="46.03013" lon="4.60231">
        <ele>570</ele>
        <time>1970-01-01T00:00:00Z</time>
      </trkpt>
      <trkpt lat="46.02979" lon="4.60265">
        <ele>561</ele>
        <time>1970-01-01T00:00:00Z</time>
      </trkpt>
      <trkpt lat="46.02974" lon="4.60337">
        <ele>555</ele>
        <time>1970-01-01T00:00:00Z</time>
      </trkpt>
      <trkpt lat="46.02931" lon="4.60263">
        <ele>554</ele>
        <time>1970-01-01T00:00:00Z</time>
      </trkpt>
      <trkpt lat="46.02895" lon="4.60114">
        <ele>542</ele>
        <time>1970-01-01T00:00:00Z</time>
      </trkpt>
      <trkpt lat="46.02898" lon="4.59958">
        <ele>526</ele>
        <time>1970-01-01T00:00:00Z</time>
      </trkpt>
      <trkpt lat="46.02971" lon="4.59821">
        <ele>533</ele>
        <time>1970-01-01T00:00:00Z</time>
      </trkpt>
      <trkpt lat="46.03001" lon="4.5971">
        <ele>541</ele>
        <time>1970-01-01T00:00:00Z</time>
      </trkpt>
      <trkpt lat="46.02913" lon="4.59778">
        <ele>507</ele>
        <time>1970-01-01T00:00:00Z</time>
      </trkpt>
      <trkpt lat="46.02898" lon="4.5983">
        <ele>512</ele>
        <time>1970-01-01T00:00:00Z</time>
      </trkpt>
      <trkpt lat="46.02822" lon="4.59999">
        <ele>506</ele>
        <time>1970-01-01T00:00:00Z</time>
      </trkpt>
      <trkpt lat="46.02817" lon="4.59958">
        <ele>496</ele>
        <time>1970-01-01T00:00:00Z</time>
      </trkpt>
      <trkpt lat="46.02827" lon="4.59875">
        <ele>488</ele>
        <time>1970-01-01T00:00:00Z</time>
      </trkpt>
      <trkpt lat="46.02781" lon="4.59961">
        <ele>490</ele>
        <time>1970-01-01T00:00:00Z</time>
      </trkpt>
      <trkpt lat="46.0276" lon="4.60024">
        <ele>491</ele>
        <time>1970-01-01T00:00:00Z</time>
      </trkpt>
      <trkpt lat="46.02778" lon="4.60265">
        <ele>492</ele>
        <time>1970-01-01T00:00:00Z</time>
      </trkpt>
      <trkpt lat="46.02734" lon="4.60363">
        <ele>469</ele>
        <time>1970-01-01T00:00:00Z</time>
      </trkpt>
      <trkpt lat="46.02725" lon="4.60547">
        <ele>467</ele>
        <time>1970-01-01T00:00:00Z</time>
      </trkpt>
      <trkpt lat="46.02745" lon="4.60632">
        <ele>461</ele>
        <time>1970-01-01T00:00:00Z</time>
      </trkpt>
      <trkpt lat="46.02721" lon="4.60847">
        <ele>435</ele>
        <time>1970-01-01T00:00:00Z</time>
      </trkpt>
      <trkpt lat="46.02684" lon="4.60778">
        <ele>436</ele>
        <time>1970-01-01T00:00:00Z</time>
      </trkpt>
      <trkpt lat="46.0268" lon="4.60418">
        <ele>456</ele>
        <time>1970-01-01T00:00:00Z</time>
      </trkpt>
      <trkpt lat="46.02734" lon="4.60257">
        <ele>467</ele>
        <time>1970-01-01T00:00:00Z</time>
      </trkpt>
      <trkpt lat="46.0272" lon="4.60105">
        <ele>463</ele>
        <time>1970-01-01T00:00:00Z</time>
      </trkpt>
      <trkpt lat="46.02659" lon="4.60024">
        <ele>450</ele>
        <time>1970-01-01T00:00:00Z</time>
      </trkpt>
      <trkpt lat="46.02634" lon="4.59993">
        <ele>455</ele>
        <time>1970-01-01T00:00:00Z</time>
      </trkpt>
      <trkpt lat="46.0262" lon="4.60065">
        <ele>450</ele>
        <time>1970-01-01T00:00:00Z</time>
      </trkpt>
      <trkpt lat="46.02525" lon="4.60353">
        <ele>441</ele>
        <time>1970-01-01T00:00:00Z</time>
      </trkpt>
      <trkpt lat="46.02525" lon="4.60353">
        <ele>441</ele>
        <time>1970-01-01T00:00:00Z</time>
      </trkpt>
      <trkpt lat="46.02525" lon="4.60353">
        <ele>441</ele>
        <time>1970-01-01T00:00:00Z</time>
      </trkpt>
      <trkpt lat="46.02493" lon="4.60258">
        <ele>463</ele>
        <time>1970-01-01T00:00:00Z</time>
      </trkpt>
      <trkpt lat="46.02419" lon="4.60049">
        <ele>489</ele>
        <time>1970-01-01T00:00:00Z</time>
      </trkpt>
      <trkpt lat="46.0246" lon="4.59945">
        <ele>492</ele>
        <time>1970-01-01T00:00:00Z</time>
      </trkpt>
      <trkpt lat="46.02372" lon="4.59791">
        <ele>523</ele>
        <time>1970-01-01T00:00:00Z</time>
      </trkpt>
      <trkpt lat="46.02317" lon="4.59702">
        <ele>541</ele>
        <time>1970-01-01T00:00:00Z</time>
      </trkpt>
      <trkpt lat="46.02226" lon="4.5966">
        <ele>565</ele>
        <time>1970-01-01T00:00:00Z</time>
      </trkpt>
      <trkpt lat="46.02241" lon="4.5958">
        <ele>566</ele>
        <time>1970-01-01T00:00:00Z</time>
      </trkpt>
      <trkpt lat="46.02274" lon="4.59463">
        <ele>571</ele>
        <time>1970-01-01T00:00:00Z</time>
      </trkpt>
      <trkpt lat="46.02264" lon="4.59294">
        <ele>598</ele>
        <time>1970-01-01T00:00:00Z</time>
      </trkpt>
      <trkpt lat="46.02316" lon="4.59296">
        <ele>593</ele>
        <time>1970-01-01T00:00:00Z</time>
      </trkpt>
      <trkpt lat="46.02332" lon="4.59153">
        <ele>629</ele>
        <time>1970-01-01T00:00:00Z</time>
      </trkpt>
      <trkpt lat="46.02555" lon="4.59306">
        <ele>620</ele>
        <time>1970-01-01T00:00:00Z</time>
      </trkpt>
      <trkpt lat="46.02407" lon="4.59088">
        <ele>643</ele>
        <time>1970-01-01T00:00:00Z</time>
      </trkpt>
      <trkpt lat="46.02295" lon="4.5907">
        <ele>650</ele>
        <time>1970-01-01T00:00:00Z</time>
      </trkpt>
      <trkpt lat="46.02245" lon="4.59143">
        <ele>640</ele>
        <time>1970-01-01T00:00:00Z</time>
      </trkpt>
      <trkpt lat="46.02164" lon="4.59096">
        <ele>647</ele>
        <time>1970-01-01T00:00:00Z</time>
      </trkpt>
      <trkpt lat="46.02128" lon="4.59357">
        <ele>637</ele>
        <time>1970-01-01T00:00:00Z</time>
      </trkpt>
      <trkpt lat="46.02024" lon="4.59577">
        <ele>638</ele>
        <time>1970-01-01T00:00:00Z</time>
      </trkpt>
      <trkpt lat="46.02087" lon="4.59892">
        <ele>617</ele>
        <time>1970-01-01T00:00:00Z</time>
      </trkpt>
      <trkpt lat="46.02062" lon="4.6004">
        <ele>621</ele>
        <time>1970-01-01T00:00:00Z</time>
      </trkpt>
      <trkpt lat="46.02042" lon="4.60164">
        <ele>618</ele>
        <time>1970-01-01T00:00:00Z</time>
      </trkpt>
      <trkpt lat="46.01964" lon="4.59749">
        <ele>641</ele>
        <time>1970-01-01T00:00:00Z</time>
      </trkpt>
      <trkpt lat="46.01964" lon="4.59749">
        <ele>641</ele>
        <time>1970-01-01T00:00:00Z</time>
      </trkpt>
      <trkpt lat="46.01863" lon="4.60244">
        <ele>663</ele>
        <time>1970-01-01T00:00:00Z</time>
      </trkpt>
      <trkpt lat="46.01797" lon="4.60279">
        <ele>653</ele>
        <time>1970-01-01T00:00:00Z</time>
      </trkpt>
      <trkpt lat="46.01732" lon="4.60276">
        <ele>640</ele>
        <time>1970-01-01T00:00:00Z</time>
      </trkpt>
      <trkpt lat="46.01662" lon="4.60292">
        <ele>619</ele>
        <time>1970-01-01T00:00:00Z</time>
      </trkpt>
      <trkpt lat="46.01515" lon="4.60217">
        <ele>593</ele>
        <time>1970-01-01T00:00:00Z</time>
      </trkpt>
      <trkpt lat="46.01457" lon="4.60096">
        <ele>576</ele>
        <time>1970-01-01T00:00:00Z</time>
      </trkpt>
      <trkpt lat="46.0142" lon="4.60201">
        <ele>577</ele>
        <time>1970-01-01T00:00:00Z</time>
      </trkpt>
      <trkpt lat="46.01533" lon="4.60418">
        <ele>558</ele>
        <time>1970-01-01T00:00:00Z</time>
      </trkpt>
      <trkpt lat="46.01543" lon="4.60556">
        <ele>544</ele>
        <time>1970-01-01T00:00:00Z</time>
      </trkpt>
      <trkpt lat="46.01514" lon="4.6071">
        <ele>532</ele>
        <time>1970-01-01T00:00:00Z</time>
      </trkpt>
      <trkpt lat="46.01514" lon="4.6071">
        <ele>532</ele>
        <time>1970-01-01T00:00:00Z</time>
      </trkpt>
      <trkpt lat="46.01467" lon="4.60696">
        <ele>518</ele>
        <time>1970-01-01T00:00:00Z</time>
      </trkpt>
      <trkpt lat="46.01512" lon="4.6081">
        <ele>521</ele>
        <time>1970-01-01T00:00:00Z</time>
      </trkpt>
      <trkpt lat="46.01504" lon="4.61009">
        <ele>509</ele>
        <time>1970-01-01T00:00:00Z</time>
      </trkpt>
      <trkpt lat="46.0141" lon="4.61342">
        <ele>496</ele>
        <time>1970-01-01T00:00:00Z</time>
      </trkpt>
      <trkpt lat="46.01343" lon="4.61414">
        <ele>497</ele>
        <time>1970-01-01T00:00:00Z</time>
      </trkpt>
      <trkpt lat="46.0124" lon="4.61803">
        <ele>470</ele>
        <time>1970-01-01T00:00:00Z</time>
      </trkpt>
      <trkpt lat="46.01199" lon="4.61885">
        <ele>466</ele>
        <time>1970-01-01T00:00:00Z</time>
      </trkpt>
      <trkpt lat="46.01197" lon="4.61732">
        <ele>467</ele>
        <time>1970-01-01T00:00:00Z</time>
      </trkpt>
      <trkpt lat="46.0114" lon="4.6174">
        <ele>453</ele>
        <time>1970-01-01T00:00:00Z</time>
      </trkpt>
      <trkpt lat="46.01061" lon="4.61698">
        <ele>439</ele>
        <time>1970-01-01T00:00:00Z</time>
      </trkpt>
      <trkpt lat="46.0105" lon="4.61644">
        <ele>441</ele>
        <time>1970-01-01T00:00:00Z</time>
      </trkpt>
      <trkpt lat="46.0109" lon="4.61511">
        <ele>454</ele>
        <time>1970-01-01T00:00:00Z</time>
      </trkpt>
      <trkpt lat="46.0113" lon="4.61345">
        <ele>461</ele>
        <time>1970-01-01T00:00:00Z</time>
      </trkpt>
      <trkpt lat="46.01024" lon="4.6135">
        <ele>450</ele>
        <time>1970-01-01T00:00:00Z</time>
      </trkpt>
      <trkpt lat="46.00983" lon="4.61288">
        <ele>450</ele>
        <time>1970-01-01T00:00:00Z</time>
      </trkpt>
      <trkpt lat="46.00933" lon="4.61325">
        <ele>444</ele>
        <time>1970-01-01T00:00:00Z</time>
      </trkpt>
      <trkpt lat="46.00921" lon="4.61284">
        <ele>445</ele>
        <time>1970-01-01T00:00:00Z</time>
      </trkpt>
      <trkpt lat="46.00913" lon="4.61161">
        <ele>425</ele>
        <time>1970-01-01T00:00:00Z</time>
      </trkpt>
      <trkpt lat="46.00929" lon="4.61064">
        <ele>433</ele>
        <time>1970-01-01T00:00:00Z</time>
      </trkpt>
      <trkpt lat="46.00884" lon="4.61059">
        <ele>427</ele>
        <time>1970-01-01T00:00:00Z</time>
      </trkpt>
      <trkpt lat="46.00808" lon="4.61009">
        <ele>427</ele>
        <time>1970-01-01T00:00:00Z</time>
      </trkpt>
      <trkpt lat="46.00759" lon="4.61011">
        <ele>423</ele>
        <time>1970-01-01T00:00:00Z</time>
      </trkpt>
      <trkpt lat="46.00763" lon="4.60906">
        <ele>435</ele>
        <time>1970-01-01T00:00:00Z</time>
      </trkpt>
      <trkpt lat="46.00746" lon="4.6088">
        <ele>421</ele>
        <time>1970-01-01T00:00:00Z</time>
      </trkpt>
      <trkpt lat="46.00808" lon="4.6073">
        <ele>427</ele>
        <time>1970-01-01T00:00:00Z</time>
      </trkpt>
      <trkpt lat="46.00737" lon="4.6078">
        <ele>410</ele>
        <time>1970-01-01T00:00:00Z</time>
      </trkpt>
      <trkpt lat="46.00625" lon="4.60986">
        <ele>394</ele>
        <time>1970-01-01T00:00:00Z</time>
      </trkpt>
      <trkpt lat="46.00618" lon="4.609">
        <ele>389</ele>
        <time>1970-01-01T00:00:00Z</time>
      </trkpt>
      <trkpt lat="46.00639" lon="4.60821">
        <ele>387</ele>
        <time>1970-01-01T00:00:00Z</time>
      </trkpt>
      <trkpt lat="46.00578" lon="4.60878">
        <ele>367</ele>
        <time>1970-01-01T00:00:00Z</time>
      </trkpt>
      <trkpt lat="46.00599" lon="4.60766">
        <ele>377</ele>
        <time>1970-01-01T00:00:00Z</time>
      </trkpt>
      <trkpt lat="46.00546" lon="4.60814">
        <ele>360</ele>
        <time>1970-01-01T00:00:00Z</time>
      </trkpt>
      <trkpt lat="46.00504" lon="4.60833">
        <ele>350</ele>
        <time>1970-01-01T00:00:00Z</time>
      </trkpt>
      <trkpt lat="46.0047" lon="4.60957">
        <ele>337</ele>
        <time>1970-01-01T00:00:00Z</time>
      </trkpt>
      <trkpt lat="46.00452" lon="4.60891">
        <ele>335</ele>
        <time>1970-01-01T00:00:00Z</time>
      </trkpt>
      <trkpt lat="46.00447" lon="4.60778">
        <ele>334</ele>
        <time>1970-01-01T00:00:00Z</time>
      </trkpt>
      <trkpt lat="46.00444" lon="4.60735">
        <ele>335</ele>
        <time>1970-01-01T00:00:00Z</time>
      </trkpt>
      <trkpt lat="46.00422" lon="4.60719">
        <ele>333</ele>
        <time>1970-01-01T00:00:00Z</time>
      </trkpt>
      <trkpt lat="46.00425" lon="4.60659">
        <ele>332</ele>
        <time>1970-01-01T00:00:00Z</time>
      </trkpt>
      <trkpt lat="46.00581" lon="4.60221">
        <ele>336</ele>
        <time>1970-01-01T00:00:00Z</time>
      </trkpt>
    </trkseg>
  </trk>
</gpx>